This is the latest recevied weather packets stored in our database for station/object KC9EGS. If no packets are shown the sender has not sent any weather packets the latest 10 day(s).
| Time | Temp. | Humidity | Pressure | Rain* | Wind** | Luminosity | Snow |
|---|---|---|---|---|---|---|---|
| 1777802113 | 9.44° C | 75% | 1001.9 hPa | 0 mm | - | - | - |
| 1777801518 | 9.44° C | 74% | 1001.9 hPa | 0 mm | - | - | - |
| 1777801212 | 9.44° C | 74% | 1001.4 hPa | 0 mm | - | - | - |
| 1777800918 | 10° C | 75% | 1001.4 hPa | 0 mm | - | - | - |
| 1777800314 | 10° C | 76% | 1001.9 hPa | 0 mm | - | - | - |
| 1777799413 | 9.44° C | 71% | 1002.1 hPa | 0 mm | - | - | - |
| 1777799117 | 9.44° C | 71% | 1002.1 hPa | 0 mm | - | - | - |
| 1777798513 | 9.44° C | 70% | 1002.6 hPa | 0 mm | - | - | - |
| 1777797612 | 9.44° C | 68% | 1003 hPa | 0 mm | - | - | - |
| 1777797318 | 9.44° C | 67% | 1003 hPa | 0 mm | - | - | - |
| 1777796713 | 9.44° C | 65% | 1002.9 hPa | 0 mm | - | - | - |
| 1777796117 | 8.89° C | 64% | 1002.9 hPa | 0 mm | - | - | - |
| 1777795811 | 8.89° C | 64% | 1003 hPa | 0 mm | - | - | - |
| 1777795518 | 8.89° C | 64% | 1003 hPa | 0 mm | - | - | - |
| 1777794914 | 8.89° C | 62% | 1003.1 hPa | 0 mm | - | - | - |
| 1777794318 | 8.89° C | 60% | 1003.1 hPa | 0 mm | - | - | - |
| 1777794012 | 8.89° C | 61% | 1003.2 hPa | 0 mm | - | - | - |
| 1777793718 | 8.89° C | 61% | 1003.2 hPa | 0 mm | - | - | - |
| 1777793113 | 8.89° C | 60% | 1003.2 hPa | 0 mm | - | - | - |
| 1777792212 | 8.89° C | 57% | 1003.1 hPa | 0 mm | - | - | - |
| 1777791313 | 9.44° C | 57% | 1003.2 hPa | 0 mm | - | - | - |
| 1777790718 | 9.44° C | 58% | 1003.2 hPa | 0 mm | - | - | - |
| 1777790411 | 9.44° C | 58% | 1003.3 hPa | 0 mm | - | - | - |
| 1777789513 | 9.44° C | 55% | 1003.5 hPa | 0 mm | - | - | - |
| 1777788611 | 10° C | 54% | 1003.8 hPa | 0 mm | - | - | - |
* Rain latest hour (hover to see other rain measurements)
** Current wind speed in m/s (hover to see current wind gust speed)